BTK6019 VOMM-WMKK

Flight info

Callsign BTK6019
Flight time N/A
Altitude 35000
Route GIRNA P574 NOPEK/N0459F370 P574 PUGER PUGER1J
Aircraft A320/M-SDE3FGHIRWY/LB1

Departure

Time 2026-04-26 08:34
Airport Chennai International Airport (VOMM)

Arrival

Time N/A
Airport Kuala Lumpur International Airport (WMKK)
Time Latitude Longitude Altitude Speed Heading
2026-04-26 08:03 12.98316 80.16244 55 ft 0 kts 160°
2026-04-26 08:22 12.98320 80.16242 49 ft 3 kts 159°
2026-04-26 08:23 12.98345 80.16232 53 ft 4 kts 152°
2026-04-26 08:23 12.98368 80.16217 50 ft 4 kts 136°
2026-04-26 08:23 12.98381 80.16196 55 ft 4 kts 89°
2026-04-26 08:23 12.98380 80.16185 54 ft 1 kts 70°
2026-04-26 08:24 12.98379 80.16184 54 ft 0 kts 70°
2026-04-26 08:26 12.98386 80.16204 49 ft 6 kts 70°
2026-04-26 08:27 12.98399 80.16240 53 ft 6 kts 70°
2026-04-26 08:27 12.98413 80.16280 51 ft 8 kts 70°
2026-04-26 08:27 12.98436 80.16342 50 ft 11 kts 70°
2026-04-26 08:27 12.98462 80.16416 52 ft 12 kts 70°
2026-04-26 08:28 12.98502 80.16524 51 ft 18 kts 69°
2026-04-26 08:28 12.98544 80.16638 55 ft 15 kts 69°
2026-04-26 08:28 12.98577 80.16732 53 ft 12 kts 68°
2026-04-26 08:28 12.98634 80.16765 52 ft 9 kts 345°
2026-04-26 08:29 12.98690 80.16744 51 ft 8 kts 336°
2026-04-26 08:29 12.98759 80.16748 55 ft 12 kts 51°
2026-04-26 08:29 12.98805 80.16864 48 ft 21 kts 69°
2026-04-26 08:29 12.98857 80.17005 55 ft 22 kts 69°
2026-04-26 08:30 12.98912 80.17150 52 ft 22 kts 68°
2026-04-26 08:30 12.98980 80.17294 50 ft 23 kts 65°
2026-04-26 08:30 12.99037 80.17446 49 ft 23 kts 69°
2026-04-26 08:30 12.99096 80.17603 51 ft 24 kts 69°
2026-04-26 08:31 12.99163 80.17698 55 ft 14 kts 11°
2026-04-26 08:31 12.99221 80.17762 51 ft 16 kts 68°
2026-04-26 08:31 12.99268 80.17887 54 ft 19 kts 69°
2026-04-26 08:31 12.99309 80.17993 51 ft 13 kts 68°
2026-04-26 08:32 12.99344 80.18083 53 ft 14 kts 68°
2026-04-26 08:32 12.99363 80.18173 53 ft 12 kts 91°
2026-04-26 08:32 12.99373 80.18253 55 ft 12 kts 65°
2026-04-26 08:32 12.99428 80.18321 48 ft 15 kts 42°
2026-04-26 08:33 12.99501 80.18390 56 ft 13 kts 43°
2026-04-26 08:33 12.99570 80.18431 56 ft 8 kts
2026-04-26 08:33 12.99581 80.18397 52 ft 6 kts 251°
2026-04-26 08:33 12.99528 80.18256 53 ft 53 kts 248°
2026-04-26 08:34 12.99312 80.17688 54 ft 115 kts 249°
2026-04-26 08:34 12.98963 80.16756 55 ft 163 kts 249°
2026-04-26 08:34 12.98508 80.15575 332 ft 183 kts 245°
2026-04-26 08:34 12.98061 80.14354 1048 ft 183 kts 249°
2026-04-26 08:35 12.98076 80.13054 1843 ft 192 kts 293°
2026-04-26 08:35 12.99039 80.12065 2316 ft 210 kts 337°
2026-04-26 08:35 13.00547 80.11866 2498 ft 230 kts
2026-04-26 08:35 13.02214 80.12070 2680 ft 254 kts 10°
2026-04-26 08:36 13.04019 80.12421 2936 ft 275 kts 12°
2026-04-26 08:36 13.05934 80.12815 3551 ft 283 kts 12°
2026-04-26 08:36 13.07885 80.13189 4314 ft 286 kts 11°
2026-04-26 08:36 13.09818 80.13673 5116 ft 286 kts 25°
2026-04-26 08:37 13.11441 80.14807 5887 ft 283 kts 49°
2026-04-26 08:37 13.12492 80.16495 6630 ft 282 kts 72°
2026-04-26 08:37 13.12807 80.18463 7354 ft 282 kts 94°
2026-04-26 08:37 13.12347 80.20412 8045 ft 284 kts 116°
2026-04-26 08:38 13.11375 80.22182 8718 ft 286 kts 120°
2026-04-26 08:38 13.10362 80.23948 9377 ft 288 kts 119°
2026-04-26 08:38 13.09337 80.25731 9980 ft 293 kts 119°
2026-04-26 08:38 13.08270 80.27594 10166 ft 313 kts 118°
2026-04-26 08:39 13.07139 80.29578 10296 ft 332 kts 119°
2026-04-26 08:39 13.05956 80.31687 10466 ft 348 kts 117°
2026-04-26 08:39 13.04817 80.33908 10901 ft 355 kts 115°
2026-04-26 08:39 13.03716 80.36193 11453 ft 358 kts 114°
2026-04-26 08:40 13.02635 80.38501 12006 ft 361 kts 114°
2026-04-26 08:40 13.01543 80.40835 12552 ft 364 kts 114°
2026-04-26 08:40 13.00432 80.43182 13078 ft 367 kts 114°
2026-04-26 08:40 12.99304 80.45538 13602 ft 370 kts 114°
2026-04-26 08:41 12.98160 80.47909 14111 ft 373 kts 115°
2026-04-26 08:41 12.96999 80.50304 14612 ft 376 kts 115°
2026-04-26 08:41 12.95828 80.52718 15115 ft 380 kts 115°
2026-04-26 08:41 12.94647 80.55150 15627 ft 383 kts 115°
2026-04-26 08:42 12.93470 80.57574 16085 ft 386 kts 115°
2026-04-26 08:42 12.92267 80.60048 16523 ft 390 kts 115°
2026-04-26 08:42 12.91042 80.62572 16972 ft 392 kts 115°
2026-04-26 08:42 12.89836 80.65056 17413 ft 395 kts 115°
2026-04-26 08:43 12.89006 80.66761 17696 ft 397 kts 115°
2026-04-26 08:43 12.87368 80.70130 18242 ft 401 kts 116°
2026-04-26 08:43 12.86529 80.71854 18517 ft 402 kts 116°
2026-04-26 08:43 12.84868 80.75272 19054 ft 406 kts 115°
2026-04-26 08:44 12.84020 80.77019 19325 ft 407 kts 116°
2026-04-26 08:44 12.82755 80.79627 19715 ft 409 kts 116°
2026-04-26 08:44 12.81480 80.82248 20086 ft 412 kts 116°
2026-04-26 08:44 12.80200 80.84878 20474 ft 414 kts 116°
2026-04-26 08:45 12.78910 80.87527 20831 ft 416 kts 116°
2026-04-26 08:45 12.77615 80.90189 21163 ft 418 kts 116°
2026-04-26 08:45 12.76312 80.92865 21519 ft 421 kts 116°
2026-04-26 08:45 12.75004 80.95551 21844 ft 422 kts 116°
2026-04-26 08:46 12.73688 80.98253 22174 ft 425 kts 116°
2026-04-26 08:46 12.72366 81.00965 22501 ft 427 kts 116°
2026-04-26 08:46 12.71036 81.03690 22814 ft 429 kts 116°
2026-04-26 08:46 12.69700 81.06427 23123 ft 431 kts 116°
2026-04-26 08:47 12.68360 81.09173 23423 ft 432 kts 116°
2026-04-26 08:47 12.67013 81.11934 23723 ft 434 kts 116°
2026-04-26 08:47 12.65657 81.14709 24003 ft 436 kts 116°
2026-04-26 08:47 12.64295 81.17493 24304 ft 438 kts 116°
2026-04-26 08:48 12.62930 81.20283 24574 ft 440 kts 116°
2026-04-26 08:48 12.61555 81.23095 24846 ft 442 kts 116°
2026-04-26 08:48 12.60173 81.25918 25101 ft 444 kts 117°
2026-04-26 08:48 12.58785 81.28751 25361 ft 446 kts 117°
2026-04-26 08:49 12.57392 81.31596 25608 ft 448 kts 117°
2026-04-26 08:49 12.55993 81.34452 25840 ft 451 kts 117°
2026-04-26 08:49 12.54585 81.37330 26074 ft 453 kts 117°
2026-04-26 08:49 12.53175 81.40211 26316 ft 454 kts 117°
2026-04-26 08:50 12.51757 81.43111 26569 ft 456 kts 117°
2026-04-26 08:50 12.50335 81.46023 26788 ft 458 kts 117°
2026-04-26 08:50 12.48906 81.48938 27020 ft 460 kts 117°
2026-04-26 08:50 12.47470 81.51865 27247 ft 461 kts 117°
2026-04-26 08:51 12.44569 81.57756 27691 ft 465 kts 117°
2026-04-26 08:51 12.43131 81.60679 27888 ft 467 kts 117°
2026-04-26 08:51 12.41668 81.63650 28093 ft 469 kts 117°
2026-04-26 08:52 12.40202 81.66631 28291 ft 470 kts 117°
2026-04-26 08:52 12.38734 81.69624 28483 ft 472 kts 117°
2026-04-26 08:52 12.37264 81.72625 28672 ft 473 kts 117°
2026-04-26 08:52 12.35784 81.75639 28863 ft 475 kts 118°
2026-04-26 08:53 12.34299 81.78657 29047 ft 476 kts 118°
2026-04-26 08:53 12.32808 81.81682 29231 ft 478 kts 118°
2026-04-26 08:53 12.31308 81.84726 29450 ft 478 kts 118°
2026-04-26 08:53 12.29815 81.87756 29725 ft 477 kts 118°
2026-04-26 08:54 12.28325 81.90783 29992 ft 476 kts 118°
2026-04-26 08:54 12.26838 81.93810 30239 ft 476 kts 118°
2026-04-26 08:54 12.25355 81.96834 30497 ft 476 kts 118°
2026-04-26 08:54 12.23867 81.99853 30761 ft 475 kts 118°
2026-04-26 08:55 12.22384 82.02862 31020 ft 475 kts 118°
2026-04-26 08:55 12.20895 82.05876 31273 ft 474 kts 118°
2026-04-26 08:55 12.19406 82.08885 31534 ft 473 kts 118°
2026-04-26 08:55 12.17921 82.11890 31790 ft 473 kts 118°
2026-04-26 08:56 12.16442 82.14887 32046 ft 473 kts 118°
2026-04-26 08:56 12.14962 82.17881 32301 ft 472 kts 118°
2026-04-26 08:56 12.13478 82.20879 32546 ft 472 kts 118°
2026-04-26 08:56 12.12001 82.23862 32794 ft 471 kts 118°
2026-04-26 08:57 12.10524 82.26845 33035 ft 470 kts 118°
2026-04-26 08:57 12.09049 82.29827 33286 ft 470 kts 118°
2026-04-26 08:57 12.07574 82.32809 33543 ft 469 kts 118°
2026-04-26 08:57 12.06102 82.35783 33738 ft 469 kts 118°
2026-04-26 08:58 12.04635 82.38747 33820 ft 468 kts 118°
2026-04-26 08:58 12.01694 82.44682 33821 ft 468 kts 118°
2026-04-26 08:59 11.98758 82.50605 33822 ft 467 kts 118°
2026-04-26 08:59 11.95830 82.56516 33824 ft 466 kts 118°
2026-04-26 09:00 11.92897 82.62423 33823 ft 466 kts 118°
2026-04-26 09:00 11.89968 82.68321 33821 ft 465 kts 118°
2026-04-26 09:01 11.87037 82.74208 33820 ft 466 kts 118°
2026-04-26 09:01 11.84125 82.80063 33817 ft 465 kts 118°
2026-04-26 09:02 11.81178 82.85988 33819 ft 465 kts 118°
2026-04-26 09:02 11.78270 82.91840 33823 ft 465 kts 118°
2026-04-26 09:03 11.75313 82.97764 33830 ft 465 kts 118°
2026-04-26 09:03 11.72397 83.03604 33830 ft 465 kts 118°
2026-04-26 09:04 11.69467 83.09485 33832 ft 465 kts 118°
2026-04-26 09:04 11.66544 83.15355 33838 ft 464 kts 118°
2026-04-26 09:05 11.63613 83.21218 33830 ft 464 kts 118°
2026-04-26 09:05 11.60678 83.27075 33827 ft 463 kts 118°
2026-04-26 09:06 11.57762 83.32938 33821 ft 463 kts 117°
2026-04-26 09:06 11.55074 83.38901 33817 ft 463 kts 115°
2026-04-26 09:07 11.52516 83.44931 33810 ft 463 kts 115°
2026-04-26 09:07 11.49920 83.50942 33809 ft 463 kts 116°
2026-04-26 09:08 11.47276 83.56915 33805 ft 462 kts 116°
2026-04-26 09:08 11.44621 83.62884 33801 ft 462 kts 116°
2026-04-26 09:09 11.41975 83.68848 33798 ft 462 kts 116°
2026-04-26 09:09 11.39332 83.74807 33801 ft 461 kts 116°
2026-04-26 09:10 11.36686 83.80767 33802 ft 461 kts 116°
2026-04-26 09:10 11.34043 83.86728 33801 ft 461 kts 116°
2026-04-26 09:11 11.31406 83.92690 33799 ft 461 kts 116°
2026-04-26 09:11 11.28775 83.98644 33798 ft 461 kts 116°
2026-04-26 09:12 11.26133 84.04603 33801 ft 461 kts 116°
2026-04-26 09:12 11.23488 84.10549 33807 ft 461 kts 116°
2026-04-26 09:13 11.20847 84.16486 33807 ft 460 kts 116°
2026-04-26 09:13 11.18215 84.22414 33806 ft 460 kts 116°
2026-04-26 09:14 11.15574 84.28348 33805 ft 459 kts 116°
2026-04-26 09:14 11.12932 84.34262 33804 ft 459 kts 116°
2026-04-26 09:15 11.10293 84.40183 33803 ft 459 kts 116°
2026-04-26 09:15 11.07657 84.46102 33803 ft 459 kts 116°
2026-04-26 09:16 11.05020 84.52011 33802 ft 459 kts 116°
2026-04-26 09:16 11.02382 84.57925 33798 ft 458 kts 116°
2026-04-26 09:17 10.99763 84.63792 33799 ft 458 kts 116°
2026-04-26 09:17 10.97119 84.69692 33800 ft 459 kts 116°
2026-04-26 09:18 10.94474 84.75599 33802 ft 458 kts 115°
2026-04-26 09:18 10.91830 84.81509 33802 ft 459 kts 115°
2026-04-26 09:19 10.89190 84.87411 33800 ft 458 kts 115°
2026-04-26 09:19 10.86542 84.93303 33798 ft 458 kts 115°
2026-04-26 09:20 10.83895 84.99201 33800 ft 458 kts 115°
2026-04-26 09:20 10.81256 85.05102 33795 ft 458 kts 115°
2026-04-26 09:21 10.78613 85.10993 33793 ft 458 kts 115°
2026-04-26 09:21 10.75960 85.16894 33770 ft 460 kts 115°
2026-04-26 09:22 10.73299 85.22814 33781 ft 461 kts 115°
2026-04-26 09:22 10.70633 85.28750 33781 ft 462 kts 115°
2026-04-26 09:23 10.67970 85.34682 33786 ft 462 kts 115°
2026-04-26 09:23 10.65288 85.40620 33788 ft 462 kts 115°
2026-04-26 09:24 10.62612 85.46547 33788 ft 461 kts 115°
2026-04-26 09:24 10.59935 85.52471 33792 ft 461 kts 115°
2026-04-26 09:25 10.57269 85.58388 33794 ft 461 kts 115°
2026-04-26 09:25 10.54602 85.64303 33793 ft 460 kts 115°
2026-04-26 09:26 10.51936 85.70208 33794 ft 460 kts 115°
2026-04-26 09:26 10.49274 85.76108 33795 ft 459 kts 115°
2026-04-26 09:27 10.47041 85.81052 33799 ft 459 kts 115°
2026-04-26 09:27 10.44374 85.86931 33799 ft 458 kts 115°
2026-04-26 09:28 10.41708 85.92829 33806 ft 461 kts 115°
2026-04-26 09:28 10.39046 85.98701 33813 ft 460 kts 115°
2026-04-26 09:29 10.36372 86.04590 33817 ft 459 kts 115°
2026-04-26 09:29 10.33706 86.10480 33817 ft 458 kts 115°
2026-04-26 09:30 10.31020 86.16398 33819 ft 458 kts 115°
2026-04-26 09:30 10.28357 86.22265 33813 ft 458 kts 115°
2026-04-26 09:31 10.25708 86.28095 33810 ft 458 kts 115°
2026-04-26 09:31 10.23041 86.33965 33808 ft 458 kts 115°
2026-04-26 09:32 10.20372 86.39825 33806 ft 458 kts 115°
2026-04-26 09:32 10.17699 86.45707 33807 ft 459 kts 115°
2026-04-26 09:33 10.15038 86.51578 33813 ft 458 kts 115°
2026-04-26 09:33 10.12363 86.57446 33808 ft 458 kts 115°
2026-04-26 09:34 10.09681 86.63325 33805 ft 458 kts 115°
2026-04-26 09:34 10.07003 86.69193 33803 ft 459 kts 115°
2026-04-26 09:35 10.04332 86.75065 33802 ft 459 kts 115°
2026-04-26 09:35 10.01657 86.80945 33804 ft 459 kts 115°
2026-04-26 09:36 9.98968 86.86822 33806 ft 459 kts 115°
2026-04-26 09:36 9.96278 86.92691 33809 ft 458 kts 115°
2026-04-26 09:37 9.93593 86.98558 33807 ft 459 kts 115°
2026-04-26 09:37 9.90911 87.04420 33807 ft 458 kts 115°
2026-04-26 09:38 9.88225 87.10280 33806 ft 458 kts 115°
2026-04-26 09:38 9.85538 87.16143 33804 ft 458 kts 115°
2026-04-26 09:39 9.82860 87.22004 33803 ft 458 kts 115°
2026-04-26 09:39 9.80185 87.27859 33801 ft 458 kts 115°
2026-04-26 09:40 9.77497 87.33711 33801 ft 458 kts 115°
2026-04-26 09:40 9.74830 87.39581 33800 ft 458 kts 114°
2026-04-26 09:41 9.72253 87.45441 33802 ft 458 kts 114°
2026-04-26 09:41 9.69683 87.51351 33803 ft 458 kts 114°
2026-04-26 09:42 9.67084 87.57251 33804 ft 458 kts 114°
2026-04-26 09:42 9.64469 87.63139 33806 ft 458 kts 114°
2026-04-26 09:43 9.61861 87.69022 33817 ft 459 kts 114°
2026-04-26 09:43 9.60552 87.71981 34027 ft 460 kts 114°
2026-04-26 09:43 9.59248 87.74928 34284 ft 459 kts 114°
2026-04-26 09:43 9.57941 87.77879 34515 ft 458 kts 114°
2026-04-26 09:44 9.56636 87.80827 34701 ft 459 kts 114°
2026-04-26 09:44 9.54012 87.86739 34812 ft 460 kts 114°
2026-04-26 09:45 9.51385 87.92659 34801 ft 460 kts 114°
2026-04-26 09:45 9.48759 87.98566 34807 ft 460 kts 114°
2026-04-26 09:46 9.46131 88.04482 34801 ft 460 kts 114°
2026-04-26 09:46 9.43506 88.10394 34807 ft 460 kts 114°
2026-04-26 09:47 9.40879 88.16308 34799 ft 460 kts 114°
2026-04-26 09:47 9.38257 88.22214 34798 ft 460 kts 114°
2026-04-26 09:48 9.35627 88.28133 34799 ft 460 kts 114°
2026-04-26 09:48 9.32999 88.34039 34803 ft 460 kts 114°
2026-04-26 09:49 9.30364 88.39942 34810 ft 460 kts 115°
2026-04-26 09:49 9.27725 88.45838 34807 ft 459 kts 115°
2026-04-26 09:50 9.25110 88.51695 34802 ft 460 kts 114°
2026-04-26 09:50 9.22475 88.57626 34794 ft 458 kts 114°
2026-04-26 09:51 9.19861 88.63505 34795 ft 458 kts 115°
2026-04-26 09:51 9.17245 88.69342 34794 ft 459 kts 115°
2026-04-26 09:52 9.14597 88.75260 34797 ft 459 kts 115°
2026-04-26 09:52 9.10661 88.84045 34794 ft 459 kts 115°
2026-04-26 09:53 9.08042 88.89927 34799 ft 459 kts 115°
2026-04-26 09:53 9.05409 88.95803 34804 ft 459 kts 115°
2026-04-26 09:54 9.02767 89.01682 34798 ft 459 kts 115°
2026-04-26 09:54 9.00132 89.07567 34803 ft 459 kts 115°
2026-04-26 09:55 8.97502 89.13446 34807 ft 459 kts 115°
2026-04-26 09:55 8.94868 89.19321 34813 ft 459 kts 115°
2026-04-26 09:56 8.92234 89.25188 34810 ft 458 kts 115°
2026-04-26 09:56 8.89603 89.31056 34805 ft 458 kts 115°
2026-04-26 09:57 8.86967 89.36926 34814 ft 458 kts 115°
2026-04-26 09:57 8.84338 89.42782 34812 ft 458 kts 115°
2026-04-26 09:58 8.81705 89.48642 34811 ft 457 kts 115°
2026-04-26 09:58 8.79064 89.54489 34801 ft 457 kts 115°
2026-04-26 09:59 8.76861 89.59382 34807 ft 457 kts 115°
2026-04-26 09:59 8.73804 89.66179 34796 ft 457 kts 115°
2026-04-26 10:00 8.71171 89.72018 34803 ft 457 kts 115°
2026-04-26 10:00 8.68542 89.77866 34793 ft 457 kts 115°
2026-04-26 10:01 8.65905 89.83709 34797 ft 457 kts 115°
2026-04-26 10:01 8.63262 89.89551 34798 ft 457 kts 115°
2026-04-26 10:02 8.60628 89.95394 34797 ft 457 kts 115°
2026-04-26 10:02 8.57989 90.01239 34806 ft 457 kts 115°
2026-04-26 10:03 8.55346 90.07077 34809 ft 457 kts 115°
2026-04-26 10:03 8.52712 90.12907 34801 ft 457 kts 115°
2026-04-26 10:04 8.50076 90.18744 34816 ft 456 kts 115°
2026-04-26 10:04 8.47442 90.24577 34803 ft 456 kts 115°
2026-04-26 10:05 8.44801 90.30405 34811 ft 456 kts 115°
2026-04-26 10:05 8.42163 90.36230 34807 ft 456 kts 115°
2026-04-26 10:06 8.39520 90.42052 34801 ft 456 kts 115°
2026-04-26 10:06 8.36882 90.47874 34800 ft 456 kts 115°
2026-04-26 10:07 8.34243 90.53700 34798 ft 456 kts 115°
2026-04-26 10:07 8.31602 90.59535 34795 ft 457 kts 115°
2026-04-26 10:08 8.28954 90.65363 34793 ft 457 kts 115°
2026-04-26 10:08 8.26304 90.71198 34798 ft 457 kts 115°
2026-04-26 10:09 8.24102 90.76047 34795 ft 457 kts 115°
2026-04-26 10:09 8.21006 90.82867 34801 ft 457 kts 115°
2026-04-26 10:10 8.18797 90.87718 34798 ft 457 kts 115°
2026-04-26 10:10 8.16138 90.93555 34801 ft 458 kts 115°
2026-04-26 10:11 8.13486 90.99385 34801 ft 457 kts 115°
2026-04-26 10:11 8.10830 91.05227 34811 ft 458 kts 115°
2026-04-26 10:12 8.08173 91.11077 34809 ft 458 kts 115°
2026-04-26 10:12 8.05508 91.16917 34806 ft 458 kts 115°
2026-04-26 10:13 8.02838 91.22755 34808 ft 458 kts 115°
2026-04-26 10:13 8.00175 91.28599 34819 ft 458 kts 115°
2026-04-26 10:14 7.97510 91.34433 34804 ft 458 kts 115°
2026-04-26 10:14 7.94841 91.40268 34811 ft 458 kts 115°
2026-04-26 10:15 7.92177 91.46111 34803 ft 458 kts 115°
2026-04-26 10:15 7.89512 91.51947 34806 ft 458 kts 115°
2026-04-26 10:16 7.86849 91.57785 34795 ft 458 kts 115°
2026-04-26 10:16 7.84180 91.63620 34807 ft 458 kts 115°
2026-04-26 10:17 7.81501 91.69465 34803 ft 459 kts 115°
2026-04-26 10:17 7.78894 91.75336 34808 ft 459 kts 114°
2026-04-26 10:18 7.76336 91.81231 34799 ft 459 kts 114°
2026-04-26 10:18 7.73761 91.87117 34806 ft 459 kts 114°
2026-04-26 10:19 7.71156 91.92997 34800 ft 459 kts 115°
2026-04-26 10:19 7.68549 91.98873 34800 ft 459 kts 114°
2026-04-26 10:20 7.65954 92.04745 34804 ft 459 kts 114°
2026-04-26 10:20 7.63354 92.10628 34795 ft 459 kts 114°
2026-04-26 10:21 7.60752 92.16504 34811 ft 459 kts 114°
2026-04-26 10:21 7.58156 92.22371 34807 ft 458 kts 114°
2026-04-26 10:22 7.55560 92.28240 34821 ft 458 kts 114°
2026-04-26 10:22 7.52969 92.34102 34822 ft 458 kts 114°
2026-04-26 10:23 7.50375 92.39965 34830 ft 458 kts 114°
2026-04-26 10:23 7.47792 92.45787 34833 ft 458 kts 114°
2026-04-26 10:24 7.45197 92.51638 34834 ft 457 kts 114°
2026-04-26 10:24 7.42608 92.57487 34834 ft 457 kts 114°
2026-04-26 10:25 7.40023 92.63329 34828 ft 457 kts 114°
2026-04-26 10:25 7.37427 92.69164 34816 ft 456 kts 114°
2026-04-26 10:26 7.34832 92.74991 34830 ft 456 kts 114°
2026-04-26 10:26 7.32237 92.80821 34824 ft 456 kts 114°
2026-04-26 10:27 7.29657 92.86641 34826 ft 455 kts 114°
2026-04-26 10:27 7.27075 92.92467 34814 ft 455 kts 114°
2026-04-26 10:28 7.24492 92.98282 34817 ft 455 kts 114°
2026-04-26 10:28 7.21896 93.04096 34813 ft 455 kts 114°
2026-04-26 10:29 7.19305 93.09905 34821 ft 455 kts 114°
2026-04-26 10:29 7.16725 93.15712 34812 ft 455 kts 114°
2026-04-26 10:30 7.14132 93.21521 34816 ft 455 kts 114°
2026-04-26 10:30 7.11539 93.27337 34810 ft 455 kts 114°
2026-04-26 10:31 7.08951 93.33151 34813 ft 455 kts 114°
2026-04-26 10:31 7.06367 93.38954 34818 ft 454 kts 114°
2026-04-26 10:32 7.03776 93.44757 34812 ft 454 kts 114°
2026-04-26 10:32 7.01186 93.50551 34816 ft 454 kts 114°
2026-04-26 10:33 6.98594 93.56339 34807 ft 453 kts 114°
2026-04-26 10:33 6.96006 93.62132 34806 ft 454 kts 114°
2026-04-26 10:34 6.93419 93.67927 34808 ft 454 kts 114°
2026-04-26 10:34 6.90831 93.73724 34809 ft 454 kts 114°
2026-04-26 10:35 6.88238 93.79525 34809 ft 454 kts 114°
2026-04-26 10:35 6.85641 93.85319 34810 ft 454 kts 114°
2026-04-26 10:36 6.83047 93.91113 34806 ft 455 kts 114°
2026-04-26 10:36 6.80452 93.96919 34815 ft 455 kts 114°
2026-04-26 10:37 6.77855 94.02719 34819 ft 455 kts 114°
2026-04-26 10:37 6.75255 94.08517 34814 ft 455 kts 114°
2026-04-26 10:38 6.72651 94.14312 34813 ft 455 kts 114°
2026-04-26 10:38 6.70053 94.20112 34809 ft 454 kts 114°
2026-04-26 10:39 6.67457 94.25903 34805 ft 455 kts 114°
2026-04-26 10:39 6.64859 94.31706 34806 ft 455 kts 114°
2026-04-26 10:40 6.62256 94.37502 34810 ft 455 kts 114°
2026-04-26 10:40 6.59601 94.43279 34813 ft 455 kts 116°
2026-04-26 10:41 6.56585 94.48879 34800 ft 456 kts 119°
2026-04-26 10:41 6.53395 94.54381 34817 ft 456 kts 119°
2026-04-26 10:42 6.50245 94.59921 34806 ft 456 kts 118°
2026-04-26 10:42 6.47161 94.65495 34815 ft 456 kts 118°
2026-04-26 10:43 6.44091 94.71070 34803 ft 456 kts 118°
2026-04-26 10:43 6.41013 94.76657 34810 ft 456 kts 118°
2026-04-26 10:44 6.37918 94.82226 34804 ft 456 kts 118°
2026-04-26 10:44 6.34830 94.87790 34810 ft 456 kts 118°
2026-04-26 10:45 6.31737 94.93364 34799 ft 456 kts 118°
2026-04-26 10:45 6.28650 94.98929 34805 ft 456 kts 118°
2026-04-26 10:46 6.25555 95.04504 34797 ft 457 kts 118°
2026-04-26 10:46 6.22469 95.10075 34801 ft 457 kts 118°
2026-04-26 10:47 6.19384 95.15656 34798 ft 456 kts 118°
2026-04-26 10:47 6.16315 95.21243 34796 ft 456 kts 118°
2026-04-26 10:48 6.13250 95.26824 34804 ft 456 kts 118°
2026-04-26 10:48 6.10179 95.32406 34802 ft 457 kts 118°
2026-04-26 10:49 6.07102 95.37983 34799 ft 457 kts 118°
2026-04-26 10:49 6.04020 95.43569 34797 ft 457 kts 118°
2026-04-26 10:50 6.01463 95.48210 34794 ft 457 kts 118°
2026-04-26 10:50 5.97872 95.54753 34797 ft 457 kts 118°
2026-04-26 10:51 5.93861 95.62243 34785 ft 458 kts 118°
2026-04-26 10:52 5.90851 95.67873 34784 ft 458 kts 118°
2026-04-26 10:52 5.87822 95.73502 34778 ft 458 kts 118°
2026-04-26 10:53 5.84785 95.79131 34772 ft 458 kts 118°
2026-04-26 10:53 5.81748 95.84753 34773 ft 458 kts 118°
2026-04-26 10:54 5.77194 95.93195 34770 ft 458 kts 118°
2026-04-26 10:54 5.74166 95.98825 34770 ft 458 kts 118°
2026-04-26 10:55 5.71133 96.04461 34772 ft 459 kts 118°
2026-04-26 10:55 5.68091 96.10095 34774 ft 459 kts 118°
2026-04-26 10:56 5.65042 96.15718 34774 ft 459 kts 118°
2026-04-26 10:56 5.62003 96.21348 34772 ft 459 kts 118°
2026-04-26 10:57 5.58969 96.26978 34770 ft 459 kts 118°
2026-04-26 10:57 5.55930 96.32613 34772 ft 459 kts 118°
2026-04-26 10:58 5.52885 96.38246 34773 ft 459 kts 118°
2026-04-26 10:58 5.49848 96.43877 34780 ft 459 kts 118°
2026-04-26 10:59 5.46808 96.49499 34779 ft 458 kts 118°
2026-04-26 10:59 5.43764 96.55120 34777 ft 458 kts 118°
2026-04-26 11:00 5.40721 96.60748 34777 ft 458 kts 118°
2026-04-26 11:00 5.37677 96.66370 34775 ft 458 kts 118°
2026-04-26 11:01 5.34640 96.71992 34778 ft 458 kts 118°
2026-04-26 11:01 5.31606 96.77614 34782 ft 458 kts 118°
2026-04-26 11:02 5.28573 96.83230 34781 ft 458 kts 118°
2026-04-26 11:02 5.25534 96.88845 34784 ft 458 kts 118°
2026-04-26 11:03 5.22493 96.94448 34785 ft 457 kts 118°
2026-04-26 11:03 5.19452 97.00048 34781 ft 457 kts 118°
2026-04-26 11:04 5.16420 97.05651 34779 ft 457 kts 118°
2026-04-26 11:04 5.13385 97.11265 34784 ft 458 kts 118°
2026-04-26 11:05 5.10341 97.16878 34785 ft 457 kts 118°
2026-04-26 11:05 5.07302 97.22480 34786 ft 457 kts 118°
2026-04-26 11:06 5.04270 97.28075 34781 ft 457 kts 118°
2026-04-26 11:06 5.01231 97.33679 34785 ft 457 kts 118°
2026-04-26 11:07 4.98187 97.39278 34791 ft 457 kts 118°
2026-04-26 11:07 4.95143 97.44877 34790 ft 457 kts 118°
2026-04-26 11:08 4.92112 97.50487 34790 ft 457 kts 118°
2026-04-26 11:08 4.89078 97.56079 34793 ft 456 kts 118°
2026-04-26 11:09 4.86034 97.61665 34802 ft 456 kts 118°
2026-04-26 11:09 4.83006 97.67255 34800 ft 456 kts 118°
2026-04-26 11:10 4.79971 97.72845 34796 ft 456 kts 118°
2026-04-26 11:10 4.76929 97.78428 34796 ft 456 kts 118°
2026-04-26 11:11 4.73892 97.84002 34803 ft 455 kts 118°
2026-04-26 11:11 4.70862 97.89564 34796 ft 455 kts 118°
2026-04-26 11:12 4.67834 97.95137 34794 ft 454 kts 118°
2026-04-26 11:12 4.64810 98.00703 34795 ft 454 kts 118°
2026-04-26 11:13 4.61795 98.06267 34797 ft 454 kts 118°
2026-04-26 11:13 4.58776 98.11830 34798 ft 454 kts 118°
2026-04-26 11:14 4.55756 98.17393 34793 ft 454 kts 118°
2026-04-26 11:14 4.53244 98.22010 34798 ft 454 kts 118°
2026-04-26 11:15 4.49702 98.28508 34796 ft 455 kts 118°
2026-04-26 11:15 4.46671 98.34072 34791 ft 455 kts 118°
2026-04-26 11:16 4.43640 98.39629 34802 ft 455 kts 118°
2026-04-26 11:16 4.40606 98.45189 34795 ft 455 kts 118°
2026-04-26 11:17 4.37578 98.50741 34798 ft 454 kts 118°
2026-04-26 11:17 4.34547 98.56301 34803 ft 454 kts 118°
2026-04-26 11:18 4.31517 98.61856 34793 ft 454 kts 118°
2026-04-26 11:18 4.28486 98.67418 34801 ft 455 kts 118°
2026-04-26 11:19 4.25458 98.72979 34795 ft 455 kts 118°
2026-04-26 11:19 4.22423 98.78541 34798 ft 455 kts 118°
2026-04-26 11:20 4.19895 98.83164 34797 ft 455 kts 118°
2026-04-26 11:20 4.16345 98.89673 34810 ft 455 kts 118°
2026-04-26 11:21 4.13328 98.95207 34818 ft 456 kts 118°
2026-04-26 11:21 4.10283 99.00777 34816 ft 456 kts 118°
2026-04-26 11:22 4.07233 99.06352 34815 ft 457 kts 118°
2026-04-26 11:22 4.04183 99.11934 34807 ft 457 kts 118°
2026-04-26 11:23 4.01132 99.17519 34803 ft 457 kts 118°
2026-04-26 11:23 3.98082 99.23103 34804 ft 457 kts 118°
2026-04-26 11:24 3.95027 99.28687 34809 ft 457 kts 118°
2026-04-26 11:24 3.91975 99.34269 34806 ft 457 kts 118°
2026-04-26 11:25 3.88924 99.39839 34799 ft 457 kts 118°
2026-04-26 11:25 3.85870 99.45423 34796 ft 457 kts 118°
2026-04-26 11:26 3.82814 99.51015 34799 ft 458 kts 118°
2026-04-26 11:26 3.79759 99.56602 34810 ft 457 kts 118°
2026-04-26 11:27 3.76702 99.62187 34797 ft 457 kts 118°
2026-04-26 11:27 3.73645 99.67774 34803 ft 458 kts 118°
2026-04-26 11:28 3.70580 99.73359 34804 ft 458 kts 119°
2026-04-26 11:28 3.67517 99.78945 34808 ft 458 kts 118°
2026-04-26 11:29 3.64467 99.84542 34803 ft 458 kts 118°
2026-04-26 11:29 3.61403 99.90143 34812 ft 458 kts 119°
2026-04-26 11:30 3.58830 99.94820 34800 ft 458 kts 119°
2026-04-26 11:30 3.55263 100.01318 34800 ft 458 kts 118°
2026-04-26 11:31 3.52206 100.06911 34820 ft 459 kts 118°
2026-04-26 11:31 3.49138 100.12510 34835 ft 459 kts 118°
2026-04-26 11:32 3.46074 100.18113 34842 ft 459 kts 119°
2026-04-26 11:32 3.43501 100.22772 34795 ft 461 kts 119°
2026-04-26 11:33 3.41971 100.25543 34710 ft 448 kts 119°
2026-04-26 11:33 3.40522 100.28250 34478 ft 437 kts 113°
2026-04-26 11:33 3.39730 100.31145 34108 ft 429 kts 98°
2026-04-26 11:33 3.39340 100.34108 33474 ft 430 kts 96°
2026-04-26 11:34 3.39067 100.37083 32914 ft 428 kts 94°
2026-04-26 11:34 3.38856 100.40046 32391 ft 425 kts 94°